Regional Weather Roundup
Issued by NWS Bismarck, ND

Home | Current Version | Previous Version | Text Only | Print | Product List | Glossary On
Versions: 1 2 3 4 5 6 7 8 9 10 11 12 13 14 15 16 17 18 19 20 21 22 23 24 25 26 27 28 29 30 31 32 33 34 35 36 37 38 39 40 41 42 43 44 45 46 47 48 49 50
000
ASUS43 KBIS 161159
RWRBIS

NWR BROADCAST TEXT
NATIONAL WEATHER SERVICE BISMARCK ND
700 AM CDT TUE SEP 16 2014

NOTE: "FAIR" INDICATES FEW OR NO CLOUDS BELOW 12,000 FEET WITH NO
SIGNIFICANT WEATHER AND/OR OBSTRUCTIONS TO VISIBILITY.


CITY           SKY/WX    TMP DP  RH WIND       PRES   REMARKS
WILLISTON      CLEAR     36  30  79 CALM      30.02F
MINOT          CLEAR     47  39  74 SW9       30.01S
MINOT AFB      CLEAR     42  40  89 SW5       30.00S
BISMARCK       CLEAR     42  38  85 NE5       30.06S
DICKINSON      CLEAR     40  37  89 S5        30.01F
GARRISON         N/A     43  39  86 CALM      30.03F
HETTINGER ARPT CLEAR     34  32  92 CALM      30.04F
JAMESTOWN      NOT AVBL
BEACH            N/A     39  39 100 S3        30.02F
CARRINGTON     FAIR      46  39  76 SW8       30.05F
CROSBY         FAIR      37  37 100 S5        30.01F
HARVEY         FAIR      37  36  93 S5        30.04S
HAZEN          FAIR      34  32  93 CALM      30.05S
LINTON         FAIR      37  37 100 NE5       30.06S
MANDAN         FAIR      45  37  76 S3        30.05F
OAKES            N/A     37  37 100 S8        30.11S
RUGBY          FAIR      41  39  93 SE5       30.03S
TIOGA          FAIR      32  32 100 CALM      30.05S
WATFORD CITY   FAIR      32  30  93 SW3       30.01R
$$

CITY           SKY/WX    TMP DP  RH WIND       PRES   REMARKS
GRAND FORKS    PTCLDY    45  38  76 SW7       30.04R
GRAND FORKS AF NOT AVBL
DEVILS LAKE    CLEAR     50  37  62 SW9       30.02F
FARGO          CLEAR     44  37  76 S8        30.09F
CAVALIER       FAIR      52  39  62 W9        29.99S
GRAFTON        FAIR      46  41  81 SW8       30.01S
GWINNER        SUNNY     41  37  87 SW9       30.12F
LANGDON        FAIR      39  37  93 SW7       30.01F
ROLLA          FAIR      41  39  93 SW8       30.02S
WALHALLA         N/A     52  39  62 W10G17    29.99S
$$

CITY           SKY/WX    TMP DP  RH WIND       PRES   REMARKS
ABERDEEN       CLEAR     33  32  96 SE5       30.11F
MOBRIDGE       CLEAR     47  42  83 S7        30.03S
RAPID CITY     CLEAR     42  39  89 CALM      30.04R
GLASGOW        CLEAR     45  34  65 E12       29.99F
SIDNEY         CLEAR     34  30  86 CALM      30.03S
WOLF POINT     CLEAR     37  32  82 CALM      30.02S
GLENDIVE       CLEAR     37  34  87 CALM      30.03R
MILES CITY     CLEAR     43  37  79 NE6       30.01S
BAKER          CLEAR     38  38 100 SE3       30.03F
$$

CITY           SKY/WX    TMP DP  RH WIND       PRES   REMARKS
BILLINGS       MOCLDY    49  42  77 SW14      30.04S
GREAT FALLS    MOCLDY    41  36  82 NW3       30.00S
$$



USA.gov is the U.S. government's official web portal to all federal, state and local government web resources and services.